Theta_e
302 303 303 304 304 304 305 306 306 306 304 303 302 302 302 301 301 302 302 302 302 300 300 300 300 300 300 305 303 310 316 315 314 314 316 315 311 314 311 310 311 311 312 315 317 317 315
304 303 304 303 304 303 304 303 302 303 304 304 304 303 302 302 301 301 301 301 303 302 300 300 300 299 300 309 305 305 307 307 308 307 315 315 312 313 314 312 311 314 314 315 315 316 320
304 304 304 304 304 304 304 304 303 303 302 301 301 303 304 302 300 301 301 301 301 302 301 300 300 299 301 301 304 304 305 312 315 313 316 315 314 314 314 313 314 316 314 312 312 314 318
302 302 303 304 303 303 303 303 303 303 303 303 302 301 301 303 303 301 299 300 301 301 302 300 300 300 305 303 303 304 305 305 316 317 316 316 317 314 313 314 313 314 313 313 312 313 316
301 302 302 302 303 303 303 303 302 302 302 302 303 303 302 301 300 299 300 299 300 302 302 301 300 301 304 303 304 312 312 309 305 317 316 314 316 314 313 313 312 311 312 312 312 313 316
301 301 301 302 302 302 301 302 301 300 301 304 304 304 304 304 303 302 299 298 301 305 304 300 306 305 302 303 307 314 315 315 313 310 309 313 316 311 309 311 313 313 313 312 313 314 314
300 300 300 300 300 301 301 301 301 302 302 303 302 303 303 304 304 304 301 298 302 306 305 307 308 306 305 309 311 313 313 313 313 314 310 314 313 314 311 312 311 312 313 314 312 312 315
299 299 299 299 300 300 301 300 300 301 302 302 302 303 304 304 303 304 303 305 305 305 305 305 305 307 306 311 312 308 309 313 311 312 313 311 315 314 312 312 313 314 314 313 312 313 313
299 299 299 299 299 299 299 300 301 300 300 301 301 303 303 303 304 303 301 305 306 304 307 307 307 306 306 307 309 307 310 314 312 312 313 315 315 313 313 312 313 313 313 313 312 312 313
298 298 298 298 299 298 299 299 299 299 299 301 301 302 303 303 302 301 304 306 306 306 307 306 308 307 305 306 311 307 309 308 312 312 312 313 314 314 313 313 313 314 312 313 314 314 316
298 297 297 298 298 297 299 299 299 299 300 301 302 302 303 303 302 302 302 304 305 308 299 303 308 306 309 307 308 310 308 310 312 312 313 313 314 315 314 313 313 314 313 313 314 315 315
297 297 297 297 297 298 298 298 298 299 300 300 301 302 303 303 303 302 303 300 306 308 306 304 308 310 311 310 309 311 311 310 311 313 314 313 315 313 315 315 313 315 316 316 316 315 317
296 296 296 296 297 297 297 297 298 299 299 300 301 303 303 303 303 302 301 302 310 309 305 305 307 310 311 311 309 310 310 310 312 312 313 313 314 315 315 316 314 315 316 318 319 319 320
297 297 296 296 296 296 297 296 298 298 298 299 301 303 304 303 303 302 302 306 310 308 307 307 306 307 310 310 310 309 308 309 309 313 312 313 314 315 315 316 316 315 316 317 322 321 319
296 295 295 295 296 296 295 296 297 297 299 300 301 303 304 303 303 303 301 305 307 308 307 307 307 307 307 308 312 311 310 308 308 311 314 314 314 313 315 316 317 317 316 315 317 317 319
295 296 296 295 295 296 295 295 296 298 298 300 302 303 304 304 303 303 301 302 307 307 306 307 307 306 308 308 310 312 315 314 314 311 312 314 315 315 316 314 315 316 315 318 316 321 322
294 295 295 294 295 294 294 294 296 297 298 301 303 303 304 304 303 302 302 300 303 304 305 306 309 308 308 307 308 308 312 316 317 317 312 313 314 315 314 315 315 316 316 317 317 316 319
294 294 294 294 293 293 294 294 294 296 298 300 302 304 304 304 302 302 303 301 303 303 305 305 306 307 307 307 307 308 311 316 314 317 316 317 314 314 315 314 314 315 316 317 318 318 317
294 294 293 293 293 294 294 294 295 295 297 299 302 302 303 304 304 303 302 302 301 304 304 305 306 305 306 306 305 306 308 311 315 317 318 317 319 318 317 315 314 315 314 315 317 316 319
294 293 292 293 293 294 294 294 294 295 296 299 299 301 302 303 303 304 303 303 302 302 302 303 304 304 305 306 306 306 307 308 308 314 317 317 319 321 322 320 318 318 317 316 315 316 316
292 292 293 293 293 294 295 294 295 296 297 298 300 299 302 303 303 303 303 303 303 304 302 303 303 303 304 304 305 306 306 307 307 308 316 315 316 318 319 317 317 317 315 315 318 315 316
292 293 293 293 293 293 294 296 296 297 298 299 299 300 302 302 304 304 303 303 304 303 304 304 304 305 303 304 304 304 305 305 306 307 315 314 314 316 315 315 315 315 314 315 317 315 315
293 294 294 295 295 295 296 296 297 297 298 300 300 300 302 304 304 305 303 304 303 304 303 303 304 305 304 304 304 304 304 304 305 306 308 313 313 313 313 313 314 312 315 312 312 314 315
295 295 296 297 296 296 296 296 296 297 298 298 299 300 301 304 304 304 304 303 304 304 304 303 303 303 305 305 305 305 305 304 304 304 306 311 312 310 310 310 314 310 314 312 315 312 311
296 296 298 298 298 297 297 297 297 297 298 298 300 300 301 302 305 303 304 304 303 303 304 303 304 304 303 305 306 306 304 307 308 309 310 310 310 309 309 311 310 310 309 313 313 312 311
298 298 298 298 298 298 298 298 298 298 298 298 299 300 302 303 303 304 304 305 304 303 303 303 303 303 304 303 305 308 307 305 308 311 311 310 310 312 311 312 309 307 313 316 316 313 315
297 298 297 297 298 299 298 299 299 299 299 299 300 300 301 300 303 303 304 305 304 303 303 302 303 303 304 301 305 307 308 305 307 311 311 312 311 313 314 315 311 309 313 316 320 311 312
298 298 297 297 297 298 298 299 299 299 299 299 300 300 300 300 302 304 304 304 304 303 303 302 303 303 303 304 305 306 302 304 305 308 310 310 310 311 311 314 312 312 312 315 314 311 311
299 299 298 298 299 298 298 298 298 298 299 301 300 300 300 300 300 303 304 304 304 304 303 303 304 303 302 301 300 301 301 298 305 307 306 308 308 308 309 308 308 312 311 311 311 312 313
Wind_Speed
14 13 13 12 11 11 13 14 16 16 16 16 17 18 20 22 24 26 27 25 22 20 21 23 23 24 23 9 16 11 8 10 9 8 12 10 11 7 5 5 6 5 5 8 13 21 10
12 13 13 13 12 13 15 16 16 17 18 17 18 18 19 19 21 24 26 27 25 24 20 19 21 22 18 8 11 11 13 21 26 19 16 13 6 12 5 5 6 6 8 13 12 19 7
13 13 14 13 12 12 15 16 15 17 18 18 18 18 20 20 20 22 23 23 25 25 22 20 19 20 18 32 19 17 18 11 11 16 16 12 11 6 4 2 6 3 5 6 8 5 6
16 15 15 16 14 14 16 15 15 17 18 18 19 20 21 23 23 23 24 23 24 24 23 23 17 15 14 25 23 26 18 20 14 19 16 11 8 8 6 6 2 2 3 3 5 3 2
18 18 16 17 16 17 17 18 18 17 18 18 18 19 20 22 24 26 27 26 28 26 20 18 14 10 17 17 17 3 4 12 20 19 16 9 2 7 4 4 3 4 4 5 7 2 3
20 18 18 17 18 20 19 19 19 17 15 17 20 20 20 22 25 26 27 24 21 15 6 3 6 4 21 17 6 3 3 3 7 20 17 9 9 4 2 4 7 6 4 5 5 3 2
22 21 20 19 20 19 20 20 17 18 16 16 19 22 21 22 23 25 25 26 8 4 8 9 5 10 11 10 8 7 8 5 9 10 10 10 4 10 12 6 5 5 4 3 5 6 2
22 22 20 21 21 20 19 18 18 19 19 17 19 20 20 20 23 23 20 6 6 9 15 23 27 36 39 17 12 18 14 8 8 7 6 4 14 8 9 8 7 4 4 6 9 8 6
23 24 21 20 22 20 19 17 20 20 19 19 19 19 18 19 20 21 10 2 3 19 7 16 22 25 34 29 26 39 15 7 6 7 10 12 3 13 9 6 9 6 9 5 8 5 3
24 24 21 21 23 18 19 19 19 20 20 19 18 18 16 18 16 8 4 5 6 14 5 8 5 7 11 13 9 34 20 23 6 12 7 8 14 4 6 13 11 11 10 8 6 3 4
25 25 23 23 24 21 22 21 20 20 18 18 17 16 13 14 14 12 9 7 10 2 6 2 4 4 8 12 4 4 29 18 10 8 7 8 6 14 5 6 7 9 7 9 5 5 0
27 24 24 25 24 21 22 22 19 19 20 19 16 15 13 16 19 15 15 11 6 1 8 7 2 3 3 7 4 4 8 8 9 4 2 8 3 8 14 11 10 2 3 4 2 3 4
27 26 26 26 25 25 24 22 20 22 20 19 18 16 15 18 17 10 7 6 3 4 6 5 3 2 6 3 4 4 5 10 5 8 9 3 7 3 4 5 5 4 5 2 1 2 5
27 28 28 27 27 26 25 23 22 22 18 20 18 17 18 21 15 11 7 2 10 4 6 5 5 11 3 1 3 4 6 6 6 2 4 7 5 12 5 9 5 7 8 5 6 4 4
27 31 28 27 27 27 26 23 22 21 19 20 19 19 22 25 17 10 3 7 3 7 4 7 9 4 4 5 4 2 2 6 6 5 6 6 5 4 8 7 13 4 5 7 1 1 1
29 29 28 29 28 28 26 24 23 20 21 20 19 22 26 26 18 14 3 8 5 2 5 5 3 5 6 7 6 6 4 6 2 3 2 2 1 3 1 4 3 7 5 3 1 3 5
31 31 31 31 30 28 26 25 25 23 23 18 19 14 16 25 19 13 6 6 9 23 12 4 4 5 3 5 6 6 6 4 9 8 2 4 2 5 5 2 7 2 5 2 4 5 4
32 33 33 31 31 29 27 26 26 24 22 20 20 6 18 27 9 6 8 6 5 8 6 6 2 5 3 4 3 3 4 5 16 5 4 1 2 3 13 12 5 2 5 7 4 6 4
35 36 34 33 31 30 28 26 23 23 23 22 11 7 21 34 10 9 5 5 8 4 4 3 3 4 4 2 3 2 5 5 20 7 3 5 3 3 4 1 4 0 5 7 3 2 9
37 38 35 34 33 32 30 29 28 27 29 25 9 5 9 25 8 17 11 10 11 12 6 3 3 2 2 4 2 3 6 4 15 5 8 3 3 1 1 1 5 7 13 11 10 8 4
38 37 36 37 37 36 34 34 32 31 32 27 13 5 9 6 11 11 17 10 16 9 16 4 4 5 2 3 5 3 4 4 8 8 2 3 5 4 6 8 4 7 10 17 16 13 11
39 40 40 40 41 41 40 37 35 33 31 34 9 5 8 2 20 16 16 14 15 16 7 5 6 3 6 12 11 7 3 2 3 7 2 2 1 3 5 12 7 7 8 8 12 11 12
42 44 44 44 44 43 40 39 36 36 35 26 25 22 5 8 10 13 16 14 18 14 17 20 9 9 7 13 16 21 23 19 11 6 5 4 2 2 3 2 4 6 7 3 7 6 11
42 42 43 45 44 42 41 40 40 40 42 39 21 19 10 6 12 13 16 21 17 19 12 16 24 10 4 2 9 9 16 17 16 13 12 6 2 1 2 2 3 5 4 6 7 9 14
37 39 35 38 38 39 39 40 41 42 44 45 33 24 15 8 5 15 16 19 25 26 19 18 19 28 15 6 4 5 3 3 6 11 11 11 4 1 2 2 7 6 6 5 5 19 10
30 31 30 28 29 34 36 38 40 42 44 44 44 33 18 4 13 8 11 21 11 14 14 25 24 23 9 3 3 3 3 4 3 2 7 5 3 4 2 2 5 4 2 5 3 9 7
32 32 31 27 25 29 31 31 33 38 44 45 35 44 26 5 11 28 9 11 13 10 5 9 23 12 11 2 3 4 4 3 3 4 3 4 2 11 5 4 8 6 5 2 2 6 16
32 31 30 30 28 27 25 25 28 32 37 41 40 35 39 11 12 25 21 12 16 22 7 11 6 6 2 6 3 3 3 5 5 5 4 5 6 4 3 3 8 7 2 1 6 7 13
29 26 28 26 27 27 29 28 29 28 31 38 20 40 37 19 7 22 18 22 30 37 21 24 14 8 12 4 3 3 3 1 5 3 4 4 6 5 8 7 6 9 11 18 16 15 23
Wind_Direction
286 290 291 297 298 305 306 307 312 312 312 315 314 314 312 308 306 304 305 307 308 306 309 310 307 308 315 297 261 245 209 193 179 233 232 213 193 185 185 200 167 194 255 257 281 297 275
304 300 300 297 306 305 300 298 298 300 304 311 311 313 317 316 311 307 306 304 302 302 303 305 300 299 306 275 273 273 252 242 250 250 232 219 216 221 207 212 180 213 246 281 287 281 236
300 304 304 301 304 304 300 301 303 303 304 305 306 311 312 309 310 312 310 312 305 297 301 289 290 290 282 264 281 270 270 252 237 211 217 225 230 207 185 187 229 234 273 302 270 253 205
298 293 295 300 297 292 293 294 296 302 301 307 313 312 306 310 315 315 314 316 311 302 289 282 276 278 261 287 273 263 258 255 226 209 208 217 234 251 225 262 347 253 69 24 301 104 14
284 291 295 295 298 297 293 292 291 294 303 309 311 311 312 310 309 311 311 315 317 306 287 277 262 255 273 272 270 258 246 252 236 214 208 234 188 211 189 144 5 355 237 215 317 209 109
284 284 283 286 291 291 285 286 295 300 301 303 304 305 310 313 317 316 310 319 320 320 321 218 208 268 252 251 244 249 89 185 218 216 216 206 198 170 116 144 212 191 228 237 225 275 4
282 286 281 283 283 288 290 289 293 298 297 299 301 301 305 309 318 317 318 341 346 306 311 240 208 240 257 250 261 216 211 350 188 195 179 171 167 209 192 187 172 151 158 249 247 220 297
283 286 286 285 285 286 289 291 290 287 289 295 296 301 303 309 307 313 330 32 56 340 299 290 259 252 247 251 303 250 247 185 167 210 135 112 227 193 176 191 183 166 205 250 293 287 160
281 282 286 287 284 289 286 283 282 284 286 290 293 297 304 310 303 312 326 97 308 337 264 286 250 242 244 237 233 252 223 193 186 174 198 202 240 170 171 171 194 196 205 204 232 3 256
277 280 285 282 281 285 284 280 279 278 285 288 286 290 295 306 306 336 357 173 311 334 298 275 236 262 195 191 230 237 228 204 205 191 168 222 236 101 190 214 184 223 184 218 245 91 241
275 278 278 276 277 276 273 275 276 278 283 284 284 285 290 285 282 294 312 290 307 337 330 235 210 308 183 184 330 244 216 201 178 183 159 224 194 202 185 220 157 233 153 200 217 198 239
275 276 274 274 277 275 272 273 275 276 277 274 280 276 268 262 271 295 297 284 298 145 249 311 175 124 162 243 285 37 169 201 216 167 156 200 198 171 214 218 180 133 152 205 127 147 241
275 275 272 272 273 272 269 268 269 272 270 263 273 264 253 258 268 296 299 315 232 204 328 311 350 198 241 231 231 181 150 190 170 179 199 178 230 211 172 148 181 145 116 264 309 187 228
273 271 275 274 273 271 266 264 268 271 271 254 268 260 247 249 255 271 295 246 230 169 261 321 309 311 217 111 248 178 107 178 274 144 160 184 271 182 194 202 173 194 167 168 195 204 247
270 274 277 272 270 271 266 260 263 266 262 261 264 253 248 241 234 232 180 223 209 189 308 334 316 1 341 343 346 16 113 177 219 205 171 172 242 236 191 191 189 203 176 201 342 91 56
271 270 267 269 270 270 265 261 260 257 252 258 258 254 246 243 223 199 180 239 242 21 11 340 325 26 7 351 28 19 18 346 30 246 194 204 227 229 236 133 231 175 159 121 9 206 235
269 268 269 269 267 266 263 259 256 254 255 255 252 246 238 226 213 178 216 213 245 272 298 327 325 323 346 15 4 354 356 35 354 339 128 186 107 280 1 139 184 161 235 179 174 154 221
270 270 272 267 267 265 261 259 256 245 254 251 251 231 189 205 187 201 211 184 271 262 323 242 257 238 269 333 347 305 32 37 3 355 35 316 85 209 250 254 264 159 226 187 200 249 220
273 272 270 268 265 264 262 256 255 242 247 248 241 224 194 189 208 213 160 199 224 242 243 279 278 60 6 349 340 315 337 353 21 16 50 354 46 350 347 355 20 183 204 207 191 173 237
270 271 265 264 263 258 258 255 251 248 244 242 255 194 197 201 222 204 191 200 202 229 262 301 298 35 43 23 347 306 337 307 348 335 329 265 135 167 11 83 284 292 313 290 245 243 268
269 267 264 261 258 255 258 258 257 246 240 236 233 232 192 200 210 202 195 193 201 207 216 230 250 213 90 318 350 255 247 317 325 284 228 184 195 154 177 238 265 294 320 321 285 252 238
268 266 265 264 261 260 258 256 244 243 235 231 221 196 198 257 204 195 192 204 202 205 193 208 219 181 206 231 224 254 260 160 255 315 241 339 240 133 232 223 253 268 307 300 276 270 268
269 270 268 265 261 258 254 249 241 237 232 229 222 231 228 192 185 191 205 194 207 200 215 220 205 241 245 244 240 252 253 257 255 290 314 304 159 159 237 281 281 290 198 226 278 300 286
272 270 268 264 257 254 249 244 239 233 228 223 221 204 209 229 201 207 199 204 208 209 210 210 229 239 227 70 328 290 261 247 247 253 228 242 187 158 260 296 229 278 171 225 207 285 317
268 267 270 273 257 248 245 239 235 229 224 225 221 201 206 232 229 203 197 197 207 210 212 226 221 236 231 311 303 306 337 323 253 228 218 209 172 182 204 209 300 296 246 199 208 268 282
270 271 269 270 251 243 240 236 231 225 223 223 220 216 212 211 212 172 202 192 182 202 211 227 234 241 253 159 190 227 236 224 277 251 194 148 189 196 141 218 252 253 42 15 85 273 15
271 268 265 264 254 240 235 228 224 221 219 218 220 219 213 236 202 190 191 191 178 161 196 204 216 225 222 145 214 227 232 248 246 189 168 149 198 227 217 224 278 241 271 245 164 278 317
272 263 258 255 249 239 230 222 219 218 218 215 215 218 207 206 176 192 189 166 175 179 169 159 138 211 148 200 210 189 209 224 206 202 187 167 174 201 144 235 270 198 293 104 220 249 297
271 267 248 246 244 232 226 224 218 211 205 206 204 213 204 211 208 182 190 191 199 194 202 166 181 161 176 155 186 176 203 154 176 231 207 227 191 190 187 215 237 200 240 276 241 263 285